Погода в Кропивницком

Украина / Кировоградская область     48°30′37″N   32°15′58″E
темп.,
°C
ветер,
м/с
пор.,
м/с
влажн.,
%
обл.,
%
осадки,
мм/ч
давл.,
гПа
погр.,
м
30 ноября, вт
вт3023:00+8з9137611 0.0 993871
02:00+5з712695 0.0 996758
05:00+2зюз712705 0.0 999752
08:00+2з7127288 0.0 1001804
11:00+4з795786 0.0 1001994
14:00+4зсз5754100 0.0 10001130
17:00+2зсз4862100 0.0 999354
20:00+1зсз5116774 0.0 999514
1 декабря, ср
ср123:000зсз49775 0.0 1001305
02:00−1зюз48805 0.0 1001210
05:000юз61565100 0.0 1000582
08:00−1юз71491100 0.1 1000655
11:00+2зюз81280100 0.4 1000914
14:00+2з71278100 0.4 10001027
17:00+1зсз6138489 0.1 1004615
20:00−1зсз510825 0.1 1007342
2 декабря, чт
чт223:00−2з2385100 0.0 100989
02:00−2юз358121 0.0 1010126
05:00−1ю498050 0.0 1009219
08:000ю6157970 0.0 1009375
11:00+5ю7157050 0.0 1008635
14:00+7ююз714695 0.0 1006660
17:00+4ююз4138339 0.0 1007262
20:00+4ююз51477100 0.0 1008283
3 декабря, пт
пт323:00+5ю51397100 0.0 1008378
02:00+7ю71189100 0.0 1007501
05:00+5ю6159077 0.0 1006391
08:00+9ююз91577100 0.0 1006908
11:00+10ю10157584 0.0 1005886
14:00+11ю81474100 0.0 1004777
17:00+9ююз61181100 0.0 1005372
20:00+6юз3791100 0.0 1007172
4 декабря, сб
сб423:00+5ссз5883100 0.0 1009331
02:00+3с4897100 0.0 1011351
05:00+2ссв3699100 0.7 1012259
08:00+2ссв3594100 0.8 1013426
11:00+4св4469100 0.0 1013552
14:00+4св5563100 0.0 1012624
17:00+3св5871100 0.0 1012497
20:00+2св5984100 0.4 1011428